Location: Tamazert
(32.6352°N, 5.2072°W)
Time: 03:56:45
(UTC+00:00)

Vanguard 1 Rocket - Pass Details

Date: 07 October 2022
Orbit: 650 x 4225 km, 34.3° (Epoch: 05 December)

Event Time Altitude Azimuth Distance (km) Brightness Sun altitude
Rises 00:54:11 0° 287° (WNW) 5,937 11.5 -60.8°
Enters shadow 00:54:15 - 287° (WNW) 5,910 11.5 -60.8°
Reaches altitude 10° 00:59:04 10° 282° (WNW) 4,320 - -60.4°
Maximum altitude 01:08:31 42° 216° (SW) 1,637 - -59.4°
Drops below altitude 10° 01:13:59 10° 146° (SE) 2,499 - -58.8°
Sets 01:16:06 0° 138° (SE) 3,239 - -58.6°
